This demonstration page uses our WeatherBlox Daily Observations layout. Learn more.

Hourly Observations for December 2, 2019

Temp ( °F °C ) Dew Point ( °F °C ) Humidity (%) Winds ( mph kmh ) Pressure ( in mb ) Visibility ( mi km ) Precip ( " mm )
12:15 am 00:15 Mostly Cloudy 34 1 34 1 100 100 N 6 9 29.59 1002 10 16.09344 0 0
12:35 am 00:35 Cloudy 34 1 34 1 100 100 N 6 9 29.59 1002 10 16.09344 0 0
12:55 am 00:55 Cloudy 34 1 34 1 100 100 NNW 7 11 29.59 1002 10 16.09344 0 0
1:15 am 01:15 Cloudy 34 1 34 1 100 100 NNW 8 13 29.59 1002 10 16.09344 0 0
1:35 am 01:35 Cloudy 34 1 34 1 100 100 N 6 9 29.59 1002 10 16.09344 0 0
1:55 am 01:55 Cloudy 36 2 34 1 93 93 N 5 7 29.59 1002 10 16.09344 0 0
2:15 am 02:15 Cloudy 36 2 36 2 100 100 N 6 9 29.59 1002 10 16.09344 0 0
2:35 am 02:35 Cloudy 36 2 36 2 100 100 NNE 3 6 29.59 1002 10 16.09344 0 0
2:55 am 02:55 Cloudy 36 2 36 2 100 100 NNE 3 6 29.59 1002 10 16.09344 0 0
3:15 am 03:15 Cloudy 36 2 36 2 100 100 NNE 5 7 29.59 1002 10 16.09344 0 0
3:35 am 03:35 Cloudy 36 2 36 2 100 100 Calm 29.59 1002 10 16.09344 0 0
3:55 am 03:55 Cloudy 36 2 36 2 100 100 Calm 29.59 1002 10 16.09344 0 0
4:15 am 04:15 Cloudy 36 2 36 2 100 100 N 5 7 29.59 1002 10 16.09344 0 0
4:35 am 04:35 Cloudy 36 2 36 2 100 100 Calm 29.59 1002 10 16.09344 0 0
4:55 am 04:55 Cloudy 36 2 36 2 100 100 Calm 29.62 1003 10 16.09344 0 0
5:15 am 05:15 Cloudy 36 2 36 2 100 100 NNE 3 6 29.59 1002 10 16.09344 0 0
5:35 am 05:35 Mostly Cloudy 36 2 36 2 100 100 NNE 3 6 29.59 1002 10 16.09344 0 0
5:55 am 05:55 Mostly Cloudy 36 2 36 2 100 100 Calm 29.62 1003 10 16.09344 0 0
6:15 am 06:15 Mostly Cloudy 34 1 34 1 100 100 Calm 29.62 1003 10 16.09344 0 0
6:35 am 06:35 Mostly Cloudy 34 1 34 1 100 100 Calm 29.62 1003 7 11.265408 0 0
6:55 am 06:55 Partly Cloudy 34 1 34 1 100 100 NNW 7 11 29.62 1003 7 11.265408 0 0
7:15 am 07:15 Partly Cloudy 34 1 34 1 100 100 Calm 29.62 1003 10 16.09344 0 0
7:35 am 07:35 Sunny 34 1 34 1 100 100 NNW 3 6 29.62 1003 10 16.09344 0 0
7:55 am 07:55 Sunny 36 2 34 1 93 93 NNW 6 9 29.65 1004 10 16.09344 0 0
8:15 am 08:15 Partly Cloudy 36 2 32 0 87 87 N 6 9 29.65 1004 10 16.09344 0 0
8:35 am 08:35 Partly Cloudy 37 3 32 0 81 81 NNW 7 11 29.65 1004 10 16.09344 0 0
8:55 am 08:55 Partly Cloudy 37 3 34 1 87 87 NNW 8 13 29.65 1004 10 16.09344 0 0
9:15 am 09:15 Partly Cloudy 39 4 34 1 81 81 NW 10 17 29.65 1004 10 16.09344 0 0
9:55 am 09:55 Cloudy 41 5 34 1 76 76 NW 12 19 29.65 1004 10 16.09344 0 0
10:15 am 10:15 Cloudy 41 5 34 1 76 76 NNW 9 15 29.65 1004 10 16.09344 0 0
10:35 am 10:35 Cloudy 41 5 34 1 76 76 NNW 12 19 29.65 1004 10 16.09344 0 0
10:55 am 10:55 Cloudy 41 5 34 1 76 76 NW 13 20 29.65 1004 10 16.09344 0 0
11:15 am 11:15 Cloudy 41 5 34 1 76 76 NW 14 22 29.65 1004 10 16.09344 0 0
11:35 am 11:35 Cloudy 41 5 34 1 76 76 NNW 9 15 29.65 1004 10 16.09344 0 0
11:55 am 11:55 Cloudy 41 5 36 2 81 81 NNW 9 15 29.65 1004 10 16.09344 0 0
12:15 pm 12:15 Cloudy 41 5 36 2 81 81 NW 10 17 29.65 1004 10 16.09344 0 0
12:35 pm 12:35 Cloudy 39 4 36 2 87 87 NW 8 13 29.62 1003 10 16.09344 0 0
12:55 pm 12:55 Cloudy 41 5 36 2 81 81 NW 12 19 29.62 1003 10 16.09344 0 0
1:15 pm 13:15 Cloudy 41 5 34 1 76 76 NNW 12 19 29.62 1003 10 16.09344 0 0
1:35 pm 13:35 Cloudy 41 5 34 1 76 76 NNW 16 26 29.62 1003 10 16.09344 0 0
1:55 pm 13:55 Cloudy 41 5 36 2 81 81 NNW 10 17 29.62 1003 10 16.09344 0 0
2:15 pm 14:15 Cloudy 41 5 36 2 81 81 NW 15 24 29.62 1003 10 16.09344 0 0
2:35 pm 14:35 Cloudy 41 5 34 1 76 76 N 18 30 29.62 1003 10 16.09344 0.01 0.254
2:55 pm 14:55 Cloudy 41 5 36 2 81 81 NNW 12 19 29.62 1003 10 16.09344 0.01 0.254
3:15 pm 15:15 Cloudy 41 5 34 1 76 76 NW 16 26 29.65 1004 10 16.09344 0 0
3:35 pm 15:35 Cloudy 41 5 34 1 76 76 NNW 13 20 29.65 1004 10 16.09344 0 0
3:55 pm 15:55 Cloudy 41 5 34 1 76 76 NNW 17 28 29.65 1004 10 16.09344 0 0
4:15 pm 16:15 Cloudy 41 5 34 1 76 76 N 18 30 29.65 1004 10 16.09344 0 0
4:35 pm 16:35 Cloudy 41 5 36 2 81 81 NNW 13 20 29.68 1005 10 16.09344 0 0
5:15 pm 17:15 Cloudy 39 4 36 2 87 87 NW 12 19 29.68 1005 10 16.09344 0 0
5:35 pm 17:35 Cloudy 37 3 36 2 93 93 NW 8 13 29.68 1005 10 16.09344 0 0
5:55 pm 17:55 Cloudy 37 3 36 2 93 93 NW 8 13 29.68 1005 10 16.09344 0 0
6:15 pm 18:15 Cloudy 37 3 36 2 93 93 WNW 10 17 29.68 1005 10 16.09344 0 0
6:35 pm 18:35 Cloudy 39 4 36 2 87 87 NW 10 17 29.71 1006 10 16.09344 0 0
6:55 pm 18:55 Cloudy 39 4 36 2 87 87 NNW 10 17 29.71 1006 10 16.09344 0 0
7:15 pm 19:15 Cloudy 39 4 36 2 87 87 NNW 10 17 29.71 1006 10 16.09344 0 0
7:35 pm 19:35 Cloudy 41 5 36 2 81 81 N 18 30 29.71 1006 10 16.09344 0 0
7:55 pm 19:55 Cloudy 37 3 36 2 93 93 N 10 17 29.71 1006 10 16.09344 0 0
8:15 pm 20:15 Cloudy 37 3 36 2 93 93 N 8 13 29.71 1006 10 16.09344 0 0
8:35 pm 20:35 Cloudy 37 3 36 2 93 93 N 9 15 29.71 1006 10 16.09344 0 0
8:55 pm 20:55 Cloudy 37 3 36 2 93 93 N 9 15 29.74 1007 10 16.09344 0 0
9:15 pm 21:15 Cloudy 37 3 36 2 93 93 N 7 11 29.74 1007 10 16.09344 0 0
9:35 pm 21:35 Cloudy 37 3 36 2 93 93 N 9 15 29.74 1007 10 16.09344 0 0
9:55 pm 21:55 Cloudy 39 4 36 2 87 87 N 9 15 29.74 1007 10 16.09344 0 0
10:15 pm 22:15 Cloudy 39 4 36 2 87 87 N 10 17 29.74 1007 10 16.09344 0 0
10:35 pm 22:35 Cloudy 37 3 36 2 93 93 N 17 28 29.74 1007 10 16.09344 0 0
10:55 pm 22:55 Cloudy 37 3 34 1 87 87 NNW 17 28 29.77 1008 10 16.09344 0 0
11:15 pm 23:15 Mostly Cloudy 37 3 32 0 81 81 NNW 21 33 29.77 1008 10 16.09344 0 0
11:35 pm 23:35 Cloudy 37 3 32 0 81 81 N 14 22 29.74 1007 10 16.09344 0 0
11:55 pm 23:55 Mostly Cloudy 37 3 32 0 81 81 N 13 20 29.74 1007 10 16.09344 0 0

Powered by AerisWeather